Year,Month,Day,Hour,Minute,Value (Times are PST for temperature in C)
2015,07,01,00,01,17.10
2015,07,01,00,02,17.10
2015,07,01,00,03,17.00
2015,07,01,00,04,17.00
2015,07,01,00,06,17.00
2015,07,01,00,07,16.90
2015,07,01,00,08,16.90
2015,07,01,00,09,16.90
2015,07,01,00,11,16.80
2015,07,01,00,12,16.80
2015,07,01,00,13,16.80
2015,07,01,00,14,16.80
2015,07,01,00,16,16.70
2015,07,01,00,17,16.70
2015,07,01,00,18,16.70
2015,07,01,00,19,16.70
2015,07,01,00,21,16.70
2015,07,01,00,22,16.70
2015,07,01,00,23,16.70
2015,07,01,00,24,16.70
2015,07,01,00,26,16.70
2015,07,01,00,27,16.70
2015,07,01,00,28,16.70
2015,07,01,00,29,16.70
2015,07,01,00,31,16.70
2015,07,01,00,32,16.70
2015,07,01,00,33,16.70
2015,07,01,00,34,16.70
2015,07,01,00,36,16.70
2015,07,01,00,37,16.70
2015,07,01,00,38,16.60
2015,07,01,00,39,16.60
2015,07,01,00,41,16.60
2015,07,01,00,42,16.40
2015,07,01,00,43,16.40
2015,07,01,00,44,16.40
2015,07,01,00,45,16.40
2015,07,01,00,46,16.40
2015,07,01,00,47,16.40
2015,07,01,00,48,16.30
2015,07,01,00,49,16.30
2015,07,01,00,50,16.30
2015,07,01,00,51,16.30
2015,07,01,00,52,16.30
2015,07,01,00,53,16.30
2015,07,01,00,54,16.20
2015,07,01,00,55,16.20
2015,07,01,00,56,16.20
2015,07,01,00,57,16.20
2015,07,01,00,58,16.20
2015,07,01,00,59,16.10
2015,07,01,01,00,16.10
2015,07,01,01,01,16.10
2015,07,01,01,02,16.10
2015,07,01,01,03,16.10
2015,07,01,01,04,16.10
2015,07,01,01,05,15.90
2015,07,01,01,06,15.90
2015,07,01,01,07,15.90
2015,07,01,01,08,15.90
2015,07,01,01,09,15.80
2015,07,01,01,10,15.90
2015,07,01,01,11,15.90
2015,07,01,01,12,15.90
2015,07,01,01,13,15.90
2015,07,01,01,14,16.10
2015,07,01,01,15,16.10
2015,07,01,01,16,16.10
2015,07,01,01,17,16.10
2015,07,01,01,18,16.10
2015,07,01,01,19,16.10
2015,07,01,01,20,16.10
2015,07,01,01,21,16.10
2015,07,01,01,22,16.10
2015,07,01,01,23,15.90
2015,07,01,01,24,15.90
2015,07,01,01,25,15.90
2015,07,01,01,26,15.90
2015,07,01,01,27,15.90
2015,07,01,01,28,15.80
2015,07,01,01,29,15.80
2015,07,01,01,30,15.80
2015,07,01,01,31,15.80
2015,07,01,01,32,15.80
2015,07,01,01,33,15.80
2015,07,01,01,34,15.80
2015,07,01,01,35,15.70
2015,07,01,01,36,15.70
2015,07,01,01,37,15.70
2015,07,01,01,38,15.60
2015,07,01,01,39,15.60
2015,07,01,01,40,15.60
2015,07,01,01,41,15.50
2015,07,01,01,42,15.50
2015,07,01,01,43,15.50
2015,07,01,01,44,15.40
2015,07,01,01,45,15.40
2015,07,01,01,46,15.40
2015,07,01,01,47,15.30
2015,07,01,01,48,15.30
2015,07,01,01,49,15.30
2015,07,01,01,50,15.30
2015,07,01,01,51,15.30
2015,07,01,01,52,15.30
2015,07,01,01,53,15.30
2015,07,01,01,54,15.30
2015,07,01,01,56,15.20
2015,07,01,01,57,15.20
2015,07,01,01,58,15.20
2015,07,01,01,59,15.20
2015,07,01,02,01,15.20
2015,07,01,02,02,15.20
2015,07,01,02,03,15.20
2015,07,01,02,04,15.20
2015,07,01,02,06,15.10
2015,07,01,02,07,15.10
2015,07,01,02,08,15.10
2015,07,01,02,09,15.10
2015,07,01,02,11,15.10
2015,07,01,02,12,15.10
2015,07,01,02,13,15.00
2015,07,01,02,14,15.00
2015,07,01,02,16,15.00
2015,07,01,02,17,14.90
2015,07,01,02,18,14.90
2015,07,01,02,19,14.90
2015,07,01,02,21,14.90
2015,07,01,02,22,14.90
2015,07,01,02,23,14.80
2015,07,01,02,24,14.80
2015,07,01,02,26,14.80
2015,07,01,02,27,14.80
2015,07,01,02,28,14.80
2015,07,01,02,29,14.80
2015,07,01,02,31,14.80
2015,07,01,02,32,14.80
2015,07,01,02,33,14.70
2015,07,01,02,34,14.70
2015,07,01,02,36,14.70
2015,07,01,02,37,14.70
2015,07,01,02,38,14.70
2015,07,01,02,39,14.70
2015,07,01,02,41,14.60
2015,07,01,02,42,14.60
2015,07,01,02,43,14.60
2015,07,01,02,44,14.60
2015,07,01,02,46,14.60
2015,07,01,02,47,14.60
2015,07,01,02,48,14.60
2015,07,01,02,49,14.60
2015,07,01,02,51,14.50
2015,07,01,02,52,14.50
2015,07,01,02,53,14.50
2015,07,01,02,54,14.50
2015,07,01,02,56,14.50
2015,07,01,02,57,14.50
2015,07,01,02,58,14.50
2015,07,01,02,59,14.50
2015,07,01,03,00,14.50
2015,07,01,03,01,14.50
2015,07,01,03,02,14.50
2015,07,01,03,03,14.60
2015,07,01,03,04,14.60
2015,07,01,03,05,14.60
2015,07,01,03,06,14.50
2015,07,01,03,07,14.50
2015,07,01,03,08,14.50
2015,07,01,03,09,14.50
2015,07,01,03,10,14.50
2015,07,01,03,11,14.50
2015,07,01,03,12,14.50
2015,07,01,03,13,14.50
2015,07,01,03,14,14.50
2015,07,01,03,15,14.50
2015,07,01,03,16,14.50
2015,07,01,03,17,14.50
2015,07,01,03,18,14.40
2015,07,01,03,19,14.40
2015,07,01,03,20,14.40
2015,07,01,03,21,14.40
2015,07,01,03,22,14.40
2015,07,01,03,23,14.30
2015,07,01,03,24,14.30
2015,07,01,03,25,14.30
2015,07,01,03,26,14.20
2015,07,01,03,27,14.20
2015,07,01,03,28,14.20
2015,07,01,03,29,14.20
2015,07,01,03,30,14.20
2015,07,01,03,31,14.20
2015,07,01,03,32,14.20
2015,07,01,03,33,14.20
2015,07,01,03,34,14.20
2015,07,01,03,35,14.10
2015,07,01,03,36,14.10
2015,07,01,03,37,14.10
2015,07,01,03,38,14.10
2015,07,01,03,39,14.10
2015,07,01,03,40,14.00
2015,07,01,03,41,14.00
2015,07,01,03,42,14.00
2015,07,01,03,43,14.00
2015,07,01,03,44,14.00
2015,07,01,03,45,14.00
2015,07,01,03,46,13.90
2015,07,01,03,47,13.90
2015,07,01,03,48,13.90
2015,07,01,03,49,13.90
2015,07,01,03,50,13.90
2015,07,01,03,51,13.90
2015,07,01,03,52,13.80
2015,07,01,03,53,13.80
2015,07,01,03,54,13.80
2015,07,01,03,55,13.80
2015,07,01,03,56,13.80
2015,07,01,03,57,13.70
2015,07,01,03,59,13.70
2015,07,01,04,01,13.70
2015,07,01,04,02,13.70
2015,07,01,04,03,13.70
2015,07,01,04,04,13.70
2015,07,01,04,06,13.60
2015,07,01,04,07,13.60
2015,07,01,04,08,13.60
2015,07,01,04,09,13.60
2015,07,01,04,11,13.50
2015,07,01,04,12,13.50
2015,07,01,04,13,13.50
2015,07,01,04,14,13.50
2015,07,01,04,16,13.50
2015,07,01,04,17,13.40
2015,07,01,04,18,13.40
2015,07,01,04,19,13.40
2015,07,01,04,21,13.40
2015,07,01,04,22,13.40
2015,07,01,04,23,13.40
2015,07,01,04,24,13.40
2015,07,01,04,26,13.40
2015,07,01,04,27,13.40
2015,07,01,04,28,13.40
2015,07,01,04,29,13.40
2015,07,01,04,31,13.30
2015,07,01,04,32,13.30
2015,07,01,04,33,13.30
2015,07,01,04,34,13.30
2015,07,01,04,36,13.30
2015,07,01,04,37,13.30
2015,07,01,04,38,13.30
2015,07,01,04,39,13.30
2015,07,01,04,41,13.30
2015,07,01,04,42,13.30
2015,07,01,04,43,13.30
2015,07,01,04,44,13.30
2015,07,01,04,46,13.30
2015,07,01,04,47,13.40
2015,07,01,04,48,13.40
2015,07,01,04,49,13.40
2015,07,01,04,50,13.40
2015,07,01,04,51,13.40
2015,07,01,04,52,13.30
2015,07,01,04,53,13.30
2015,07,01,04,54,13.30
2015,07,01,04,55,13.30
2015,07,01,04,56,13.30
2015,07,01,04,57,13.30
2015,07,01,04,58,13.30
2015,07,01,04,59,13.30
2015,07,01,05,00,13.30
2015,07,01,05,01,13.30
2015,07,01,05,02,13.30
2015,07,01,05,03,13.30
2015,07,01,05,04,13.30
2015,07,01,05,05,13.30
2015,07,01,05,06,13.20
2015,07,01,05,07,13.20
2015,07,01,05,08,13.20
2015,07,01,05,09,13.20
2015,07,01,05,10,13.20
2015,07,01,05,11,13.10
2015,07,01,05,12,13.10
2015,07,01,05,13,13.10
2015,07,01,05,14,13.10
2015,07,01,05,15,13.10
2015,07,01,05,16,13.10
2015,07,01,05,17,13.10
2015,07,01,05,18,13.00
2015,07,01,05,19,13.00
2015,07,01,05,20,13.00
2015,07,01,05,21,13.00
2015,07,01,05,22,13.00
2015,07,01,05,23,12.90
2015,07,01,05,24,12.90
2015,07,01,05,25,12.90
2015,07,01,05,26,12.90
2015,07,01,05,27,12.90
2015,07,01,05,28,12.90
2015,07,01,05,29,12.90
2015,07,01,05,30,12.90
2015,07,01,05,31,12.90
2015,07,01,05,32,12.80
2015,07,01,05,34,12.80
2015,07,01,05,36,12.80
2015,07,01,05,37,12.80
2015,07,01,05,38,12.80
2015,07,01,05,39,12.80
2015,07,01,05,41,12.80
2015,07,01,05,42,12.80
2015,07,01,05,43,12.80
2015,07,01,05,44,12.80
2015,07,01,05,46,12.80
2015,07,01,05,47,12.80
2015,07,01,05,48,12.80
2015,07,01,05,49,12.80
2015,07,01,05,51,12.80
2015,07,01,05,52,12.80
2015,07,01,05,53,12.80
2015,07,01,05,54,12.80
2015,07,01,05,56,12.80
2015,07,01,05,57,12.90
2015,07,01,05,58,12.90
2015,07,01,05,59,12.90
2015,07,01,06,01,12.90
2015,07,01,06,02,13.00
2015,07,01,06,03,13.00
2015,07,01,06,04,13.00
2015,07,01,06,06,13.10
2015,07,01,06,07,13.10
2015,07,01,06,08,13.20
2015,07,01,06,09,13.20
2015,07,01,06,11,13.30
2015,07,01,06,12,13.30
2015,07,01,06,13,13.30
2015,07,01,06,14,13.30
2015,07,01,06,16,13.30
2015,07,01,06,17,13.30
2015,07,01,06,18,13.30
2015,07,01,06,19,13.30
2015,07,01,06,21,13.30
2015,07,01,06,22,13.30
2015,07,01,06,23,13.30
2015,07,01,06,24,13.30
2015,07,01,06,26,13.30
2015,07,01,06,27,13.30
2015,07,01,06,28,13.30
2015,07,01,06,29,13.30
2015,07,01,06,31,13.30
2015,07,01,06,32,13.30
2015,07,01,06,33,13.30
2015,07,01,06,34,13.30
2015,07,01,06,36,13.30
2015,07,01,06,37,13.30
2015,07,01,06,38,13.30
2015,07,01,06,39,13.30
2015,07,01,06,41,13.30
2015,07,01,06,42,13.30
2015,07,01,06,43,13.30
2015,07,01,06,44,13.30
2015,07,01,06,46,13.30
2015,07,01,06,47,13.30
2015,07,01,06,48,13.30
2015,07,01,06,49,13.40
2015,07,01,06,51,13.40
2015,07,01,06,52,13.40
2015,07,01,06,53,13.40
2015,07,01,06,54,13.40
2015,07,01,06,55,13.40
2015,07,01,06,56,13.50
2015,07,01,06,57,13.50
2015,07,01,06,58,13.50
2015,07,01,06,59,13.50
2015,07,01,07,00,13.50
2015,07,01,07,01,13.50
2015,07,01,07,02,13.50
2015,07,01,07,03,13.50
2015,07,01,07,04,13.60
2015,07,01,07,05,13.60
2015,07,01,07,06,13.60
2015,07,01,07,07,13.60
2015,07,01,07,08,13.60
2015,07,01,07,09,13.60
2015,07,01,07,10,13.70
2015,07,01,07,11,13.70
2015,07,01,07,12,13.70
2015,07,01,07,13,13.70
2015,07,01,07,14,13.70
2015,07,01,07,15,13.70
2015,07,01,07,16,13.70
2015,07,01,07,17,13.70
2015,07,01,07,18,13.70
2015,07,01,07,19,13.70
2015,07,01,07,20,13.70
2015,07,01,07,21,13.80
2015,07,01,07,22,13.80
2015,07,01,07,23,13.80
2015,07,01,07,24,13.90
2015,07,01,07,25,13.90
2015,07,01,07,26,14.00
2015,07,01,07,27,14.00
2015,07,01,07,28,14.00
2015,07,01,07,29,14.00
2015,07,01,07,30,14.10
2015,07,01,07,31,14.10
2015,07,01,07,32,14.10
2015,07,01,07,33,14.10
2015,07,01,07,34,14.10
2015,07,01,07,35,14.10
2015,07,01,07,37,14.20
2015,07,01,07,38,14.20
2015,07,01,07,39,14.20
2015,07,01,07,41,14.20
2015,07,01,07,42,14.20
2015,07,01,07,43,14.20
2015,07,01,07,44,14.20
2015,07,01,07,46,14.20
2015,07,01,07,47,14.20
2015,07,01,07,48,14.30
2015,07,01,07,49,14.30
2015,07,01,07,51,14.30
2015,07,01,07,52,14.40
2015,07,01,07,53,14.40
2015,07,01,07,54,14.40
2015,07,01,07,56,14.40
2015,07,01,07,57,14.40
2015,07,01,07,58,14.40
2015,07,01,07,59,14.30
2015,07,01,08,01,14.30
2015,07,01,08,02,14.30
2015,07,01,08,03,14.20
2015,07,01,08,04,14.20
2015,07,01,08,06,14.20
2015,07,01,08,07,14.20
2015,07,01,08,08,14.20
2015,07,01,08,09,14.20
2015,07,01,08,11,14.30
2015,07,01,08,12,14.30
2015,07,01,08,13,14.30
2015,07,01,08,14,14.30
2015,07,01,08,16,14.30
2015,07,01,08,17,14.30
2015,07,01,08,18,14.40
2015,07,01,08,19,14.40
2015,07,01,08,21,14.40
2015,07,01,08,22,14.50
2015,07,01,08,23,14.50
2015,07,01,08,24,14.50
2015,07,01,08,26,14.70
2015,07,01,08,27,14.70
2015,07,01,08,28,14.80
2015,07,01,08,29,14.80
2015,07,01,08,31,14.90
2015,07,01,08,32,14.90
2015,07,01,08,33,15.00
2015,07,01,08,34,15.10
2015,07,01,08,35,15.10
2015,07,01,08,36,15.20
2015,07,01,08,37,15.20
2015,07,01,08,38,15.30
2015,07,01,08,39,15.30
2015,07,01,08,40,15.30
2015,07,01,08,41,15.40
2015,07,01,08,42,15.40
2015,07,01,08,43,15.50
2015,07,01,08,44,15.60
2015,07,01,08,45,15.70
2015,07,01,08,46,15.70
2015,07,01,08,47,15.80
2015,07,01,08,48,15.80
2015,07,01,08,49,15.90
2015,07,01,08,50,16.10
2015,07,01,08,51,16.10
2015,07,01,08,52,16.20
2015,07,01,08,53,16.30
2015,07,01,08,54,16.40
2015,07,01,08,55,16.40
2015,07,01,08,56,16.60
2015,07,01,08,57,16.70
2015,07,01,08,58,16.80
2015,07,01,08,59,16.90
2015,07,01,09,00,17.00
2015,07,01,09,01,17.20
2015,07,01,09,02,17.30
2015,07,01,09,03,17.40
2015,07,01,09,04,17.50
2015,07,01,09,05,17.60
2015,07,01,09,06,17.80
2015,07,01,09,07,17.90
2015,07,01,09,09,18.10
2015,07,01,09,11,18.20
2015,07,01,09,12,18.20
2015,07,01,09,13,18.20
2015,07,01,09,14,18.30
2015,07,01,09,16,18.40
2015,07,01,09,17,18.40
2015,07,01,09,18,18.50
2015,07,01,09,19,18.50
2015,07,01,09,21,18.60
2015,07,01,09,22,18.70
2015,07,01,09,23,18.80
2015,07,01,09,24,18.80
2015,07,01,09,26,18.80
2015,07,01,09,27,18.80
2015,07,01,09,28,18.80
2015,07,01,09,29,18.90
2015,07,01,09,31,18.90
2015,07,01,09,32,18.90
2015,07,01,09,33,18.90
2015,07,01,09,34,18.90
2015,07,01,09,36,18.90
2015,07,01,09,37,19.10
2015,07,01,09,38,19.10
2015,07,01,09,39,19.10
2015,07,01,09,41,19.10
2015,07,01,09,42,19.10
2015,07,01,09,43,19.10
2015,07,01,09,44,19.10
2015,07,01,09,46,19.10
2015,07,01,09,47,19.10
2015,07,01,09,48,19.10
2015,07,01,09,49,19.10
2015,07,01,09,51,18.90
2015,07,01,09,52,18.90
2015,07,01,09,53,18.90
2015,07,01,09,54,18.80
2015,07,01,09,56,18.80
2015,07,01,09,57,18.70
2015,07,01,09,58,18.70
2015,07,01,09,59,18.70
2015,07,01,10,01,18.70
2015,07,01,10,02,18.60
2015,07,01,10,03,18.60
2015,07,01,10,04,18.70
2015,07,01,10,06,18.80
2015,07,01,10,07,18.90
2015,07,01,10,08,18.90
2015,07,01,10,09,19.10
2015,07,01,10,11,19.30
2015,07,01,10,12,19.30
2015,07,01,10,13,19.50
2015,07,01,10,14,19.60
2015,07,01,10,16,19.80
2015,07,01,10,17,19.80
2015,07,01,10,18,19.90
2015,07,01,10,19,19.90
2015,07,01,10,21,20.20
2015,07,01,10,22,20.20
2015,07,01,10,23,20.20
2015,07,01,10,24,20.20
2015,07,01,10,26,20.30
2015,07,01,10,27,20.40
2015,07,01,10,28,20.40
2015,07,01,10,29,20.40
2015,07,01,10,30,20.40
2015,07,01,10,31,20.40
2015,07,01,10,32,20.50
2015,07,01,10,33,20.50
2015,07,01,10,34,20.50
2015,07,01,10,35,20.50
2015,07,01,10,36,20.60
2015,07,01,10,37,20.60
2015,07,01,10,38,20.70
2015,07,01,10,39,20.70
2015,07,01,10,40,20.80
2015,07,01,10,41,20.80
2015,07,01,10,42,20.80
2015,07,01,10,43,20.80
2015,07,01,10,44,20.80
2015,07,01,10,45,20.90
2015,07,01,10,46,20.90
2015,07,01,10,47,20.90
2015,07,01,10,48,21.00
2015,07,01,10,49,21.00
2015,07,01,10,50,21.10
2015,07,01,10,51,21.10
2015,07,01,10,52,21.10
2015,07,01,10,53,21.20
2015,07,01,10,54,21.30
2015,07,01,10,55,21.30
2015,07,01,10,56,21.30
2015,07,01,10,57,21.40
2015,07,01,10,58,21.60
2015,07,01,10,59,21.60
2015,07,01,11,00,21.60
2015,07,01,11,01,21.60
2015,07,01,11,02,21.60
2015,07,01,11,03,21.60
2015,07,01,11,04,21.60
2015,07,01,11,05,21.60
2015,07,01,11,06,21.70
2015,07,01,11,07,21.80
2015,07,01,11,08,21.80
2015,07,01,11,09,21.90
2015,07,01,11,10,22.00
2015,07,01,11,11,22.00
2015,07,01,11,12,22.00
2015,07,01,11,13,22.10
2015,07,01,11,14,22.10
2015,07,01,11,15,22.20
2015,07,01,11,16,22.20
2015,07,01,11,17,22.30
2015,07,01,11,18,22.30
2015,07,01,11,19,22.40
2015,07,01,11,20,22.40
2015,07,01,11,21,22.40
2015,07,01,11,22,22.40
2015,07,01,11,23,22.50
2015,07,01,11,24,22.50
2015,07,01,11,25,22.60
2015,07,01,11,26,22.60
2015,07,01,11,27,22.60
2015,07,01,11,28,22.60
2015,07,01,11,29,22.60
2015,07,01,11,30,22.60
2015,07,01,11,31,22.60
2015,07,01,11,32,22.50
2015,07,01,11,33,22.40
2015,07,01,11,34,22.30
2015,07,01,11,36,22.20
2015,07,01,11,37,22.10
2015,07,01,11,38,22.10
2015,07,01,11,39,22.00
2015,07,01,11,41,22.00
2015,07,01,11,42,22.00
2015,07,01,11,43,22.10
2015,07,01,11,44,22.10
2015,07,01,11,46,22.20
2015,07,01,11,47,22.30
2015,07,01,11,48,22.30
2015,07,01,11,49,22.30
2015,07,01,11,51,22.40
2015,07,01,11,52,22.40
2015,07,01,11,53,22.40
2015,07,01,11,54,22.40
2015,07,01,11,56,22.50
2015,07,01,11,57,22.60
2015,07,01,11,58,22.60
2015,07,01,11,59,22.60
2015,07,01,12,01,22.60
2015,07,01,12,02,22.60
2015,07,01,12,03,22.60
2015,07,01,12,04,22.60
2015,07,01,12,06,22.60
2015,07,01,12,07,22.50
2015,07,01,12,08,22.50
2015,07,01,12,09,22.50
2015,07,01,12,11,22.40
2015,07,01,12,12,22.40
2015,07,01,12,13,22.40
2015,07,01,12,14,22.40
2015,07,01,12,16,22.40
2015,07,01,12,17,22.40
2015,07,01,12,18,22.40
2015,07,01,12,19,22.50
2015,07,01,12,21,22.50
2015,07,01,12,22,22.50
2015,07,01,12,23,22.60
2015,07,01,12,24,22.60
2015,07,01,12,26,22.60
2015,07,01,12,27,22.70
2015,07,01,12,28,22.70
2015,07,01,12,29,22.80
2015,07,01,12,31,22.90
2015,07,01,12,32,22.90
2015,07,01,12,33,22.90
2015,07,01,12,34,22.90
2015,07,01,12,36,23.10
2015,07,01,12,37,23.10
2015,07,01,12,38,23.20
2015,07,01,12,39,23.20
2015,07,01,12,41,23.30
2015,07,01,12,42,23.30
2015,07,01,12,43,23.30
2015,07,01,12,44,23.30
2015,07,01,12,46,23.30
2015,07,01,12,47,23.30
2015,07,01,12,48,23.30
2015,07,01,12,49,23.30
2015,07,01,12,50,23.30
2015,07,01,12,51,23.30
2015,07,01,12,52,23.30
2015,07,01,12,53,23.30
2015,07,01,12,54,23.30
2015,07,01,12,55,23.30
2015,07,01,12,56,23.30
2015,07,01,12,57,23.40
2015,07,01,12,58,23.40
2015,07,01,12,59,23.40
2015,07,01,13,00,23.40
2015,07,01,13,01,23.60
2015,07,01,13,02,23.60
2015,07,01,13,03,23.60
2015,07,01,13,04,23.60
2015,07,01,13,05,23.60
2015,07,01,13,06,23.60
2015,07,01,13,07,23.60
2015,07,01,13,08,23.60
2015,07,01,13,09,23.70
2015,07,01,13,10,23.70
2015,07,01,13,11,23.70
2015,07,01,13,12,23.70
2015,07,01,13,13,23.70
2015,07,01,13,14,23.70
2015,07,01,13,15,23.70
2015,07,01,13,16,23.70
2015,07,01,13,17,23.70
2015,07,01,13,18,23.80
2015,07,01,13,19,23.80
2015,07,01,13,20,23.90
2015,07,01,13,21,23.90
2015,07,01,13,22,24.10
2015,07,01,13,23,24.10
2015,07,01,13,24,24.10
2015,07,01,13,25,24.10
2015,07,01,13,26,24.20
2015,07,01,13,27,24.20
2015,07,01,13,28,24.20
2015,07,01,13,29,24.20
2015,07,01,13,30,24.20
2015,07,01,13,31,24.30
2015,07,01,13,32,24.30
2015,07,01,13,33,24.30
2015,07,01,13,34,24.30
2015,07,01,13,35,24.30
2015,07,01,13,36,24.30
2015,07,01,13,37,24.30
2015,07,01,13,38,24.30
2015,07,01,13,39,24.40
2015,07,01,13,40,24.40
2015,07,01,13,41,24.40
2015,07,01,13,42,24.50
2015,07,01,13,43,24.60
2015,07,01,13,44,24.60
2015,07,01,13,45,24.70
2015,07,01,13,46,24.80
2015,07,01,13,47,24.90
2015,07,01,13,48,25.00
2015,07,01,13,49,25.10
2015,07,01,13,50,25.10
2015,07,01,13,51,25.20
2015,07,01,13,52,25.20
2015,07,01,13,53,25.20
2015,07,01,13,54,25.10
2015,07,01,13,55,25.00
2015,07,01,13,56,24.90
2015,07,01,13,57,24.90
2015,07,01,13,58,24.80
2015,07,01,13,59,24.80
2015,07,01,14,00,24.80
2015,07,01,14,01,24.80
2015,07,01,14,02,24.80
2015,07,01,14,03,24.90
2015,07,01,14,04,25.00
2015,07,01,14,05,25.10
2015,07,01,14,06,25.20
2015,07,01,14,07,25.20
2015,07,01,14,08,25.30
2015,07,01,14,09,25.40
2015,07,01,14,10,25.50
2015,07,01,14,12,25.60
2015,07,01,14,13,25.70
2015,07,01,14,14,25.80
2015,07,01,14,16,25.90
2015,07,01,14,17,25.90
2015,07,01,14,18,26.00
2015,07,01,14,19,26.10
2015,07,01,14,21,26.20
2015,07,01,14,22,26.20
2015,07,01,14,23,26.20
2015,07,01,14,24,26.20
2015,07,01,14,26,26.10
2015,07,01,14,27,26.10
2015,07,01,14,28,26.20
2015,07,01,14,29,26.20
2015,07,01,14,31,26.30
2015,07,01,14,32,26.40
2015,07,01,14,33,26.40
2015,07,01,14,34,26.60
2015,07,01,14,36,26.60
2015,07,01,14,37,26.60
2015,07,01,14,38,26.70
2015,07,01,14,39,26.70
2015,07,01,14,41,26.70
2015,07,01,14,42,26.60
2015,07,01,14,43,26.60
2015,07,01,14,44,26.60
2015,07,01,14,46,26.60
2015,07,01,14,47,26.60
2015,07,01,14,48,26.60
2015,07,01,14,49,26.60
2015,07,01,14,51,26.60
2015,07,01,14,52,26.60
2015,07,01,14,53,26.60
2015,07,01,14,54,26.60
2015,07,01,14,56,26.60
2015,07,01,14,57,26.60
2015,07,01,14,58,26.60
2015,07,01,14,59,26.60
2015,07,01,15,01,26.60
2015,07,01,15,02,26.60
2015,07,01,15,03,26.70
2015,07,01,15,04,26.70
2015,07,01,15,06,26.80
2015,07,01,15,07,26.90
2015,07,01,15,08,26.90
2015,07,01,15,09,27.10
2015,07,01,15,11,27.20
2015,07,01,15,12,27.20
2015,07,01,15,13,27.20
2015,07,01,15,14,27.20
2015,07,01,15,16,27.10
2015,07,01,15,17,27.20
2015,07,01,15,18,27.20
2015,07,01,15,19,27.20
2015,07,01,15,21,27.30
2015,07,01,15,22,27.30
2015,07,01,15,23,27.30
2015,07,01,15,24,27.40
2015,07,01,15,26,27.40
2015,07,01,15,27,27.60
2015,07,01,15,28,27.60
2015,07,01,15,29,27.70
2015,07,01,15,31,27.80
2015,07,01,15,32,27.80
2015,07,01,15,33,27.90
2015,07,01,15,34,27.90
2015,07,01,15,36,27.70
2015,07,01,15,37,27.70
2015,07,01,15,38,27.70
2015,07,01,15,39,27.70
2015,07,01,15,41,27.70
2015,07,01,15,42,27.80
2015,07,01,15,43,27.80
2015,07,01,15,44,27.70
2015,07,01,15,46,27.20
2015,07,01,15,47,26.80
2015,07,01,15,48,26.60
2015,07,01,15,49,26.40
2015,07,01,15,50,26.10
2015,07,01,15,51,25.80
2015,07,01,15,52,25.60
2015,07,01,15,53,25.40
2015,07,01,15,54,25.30
2015,07,01,15,55,25.20
2015,07,01,15,56,25.20
2015,07,01,15,57,25.10
2015,07,01,15,58,25.10
2015,07,01,15,59,25.10
2015,07,01,16,00,25.10
2015,07,01,16,01,25.10
2015,07,01,16,02,25.10
2015,07,01,16,03,25.10
2015,07,01,16,04,25.10
2015,07,01,16,05,25.10
2015,07,01,16,06,25.10
2015,07,01,16,07,25.10
2015,07,01,16,08,25.10
2015,07,01,16,09,25.10
2015,07,01,16,10,25.20
2015,07,01,16,11,25.20
2015,07,01,16,12,25.30
2015,07,01,16,13,25.40
2015,07,01,16,14,25.50
2015,07,01,16,15,25.60
2015,07,01,16,16,25.70
2015,07,01,16,17,25.80
2015,07,01,16,18,25.90
2015,07,01,16,19,26.00
2015,07,01,16,20,26.10
2015,07,01,16,21,26.20
2015,07,01,16,22,26.20
2015,07,01,16,23,26.30
2015,07,01,16,24,26.40
2015,07,01,16,26,26.60
2015,07,01,16,27,26.60
2015,07,01,16,28,26.60
2015,07,01,16,29,26.60
2015,07,01,16,30,26.60
2015,07,01,16,31,26.60
2015,07,01,16,32,26.60
2015,07,01,16,33,26.40
2015,07,01,16,34,26.40
2015,07,01,16,35,26.40
2015,07,01,16,36,26.30
2015,07,01,16,37,26.30
2015,07,01,16,38,26.30
2015,07,01,16,39,26.30
2015,07,01,16,40,26.40
2015,07,01,16,41,26.40
2015,07,01,16,42,26.40
2015,07,01,16,43,26.40
2015,07,01,16,44,26.60
2015,07,01,16,45,26.60
2015,07,01,16,46,26.60
2015,07,01,16,47,26.70
2015,07,01,16,48,26.70
2015,07,01,16,49,26.70
2015,07,01,16,50,26.70
2015,07,01,16,51,26.70
2015,07,01,16,52,26.80
2015,07,01,16,53,26.80
2015,07,01,16,54,26.80
2015,07,01,16,55,26.90
2015,07,01,16,56,26.90
2015,07,01,16,57,26.90
2015,07,01,16,58,26.90
2015,07,01,16,59,26.90
2015,07,01,17,00,26.80
2015,07,01,17,01,26.80
2015,07,01,17,02,26.80
2015,07,01,17,03,26.80
2015,07,01,17,04,26.80
2015,07,01,17,05,26.80
2015,07,01,17,06,26.80
2015,07,01,17,08,26.90
2015,07,01,17,09,26.90
2015,07,01,17,11,27.10
2015,07,01,17,12,27.20
2015,07,01,17,13,27.30
2015,07,01,17,14,27.30
2015,07,01,17,16,27.30
2015,07,01,17,17,27.30
2015,07,01,17,18,27.30
2015,07,01,17,19,27.30
2015,07,01,17,21,27.30
2015,07,01,17,22,27.20
2015,07,01,17,23,27.20
2015,07,01,17,24,27.20
2015,07,01,17,26,27.20
2015,07,01,17,27,27.20
2015,07,01,17,28,27.20
2015,07,01,17,29,27.20
2015,07,01,17,31,27.30
2015,07,01,17,32,27.30
2015,07,01,17,33,27.30
2015,07,01,17,34,27.30
2015,07,01,17,36,27.20
2015,07,01,17,37,27.10
2015,07,01,17,38,26.90
2015,07,01,17,39,26.90
2015,07,01,17,41,26.70
2015,07,01,17,42,26.70
2015,07,01,17,43,26.60
2015,07,01,17,44,26.60
2015,07,01,17,46,26.60
2015,07,01,17,47,26.60
2015,07,01,17,48,26.60
2015,07,01,17,49,26.60
2015,07,01,17,51,26.60
2015,07,01,17,52,26.60
2015,07,01,17,53,26.40
2015,07,01,17,54,26.30
2015,07,01,17,56,26.10
2015,07,01,17,57,26.00
2015,07,01,17,58,25.90
2015,07,01,17,59,25.80
2015,07,01,18,01,25.50
2015,07,01,18,02,25.50
2015,07,01,18,03,25.40
2015,07,01,18,04,25.40
2015,07,01,18,06,25.50
2015,07,01,18,07,25.50
2015,07,01,18,08,25.60
2015,07,01,18,09,25.60
2015,07,01,18,11,25.80
2015,07,01,18,12,25.80
2015,07,01,18,13,25.90
2015,07,01,18,14,25.90
2015,07,01,18,16,26.10
2015,07,01,18,17,26.10
2015,07,01,18,18,26.20
2015,07,01,18,19,26.20
2015,07,01,18,21,26.30
2015,07,01,18,22,26.40
2015,07,01,18,23,26.40
2015,07,01,18,24,26.40
2015,07,01,18,26,26.60
2015,07,01,18,27,26.60
2015,07,01,18,28,26.70
2015,07,01,18,29,26.80
2015,07,01,18,31,27.10
2015,07,01,18,32,27.10
2015,07,01,18,33,27.10
2015,07,01,18,34,26.90
2015,07,01,18,36,26.80
2015,07,01,18,37,26.80
2015,07,01,18,38,26.80
2015,07,01,18,39,26.80
2015,07,01,18,41,27.10
2015,07,01,18,42,27.10
2015,07,01,18,43,27.20
2015,07,01,18,44,27.30
2015,07,01,18,46,27.40
2015,07,01,18,47,27.60
2015,07,01,18,48,27.70
2015,07,01,18,49,27.80
2015,07,01,18,51,27.90
2015,07,01,18,52,28.00
2015,07,01,18,53,28.00
2015,07,01,18,54,28.00
2015,07,01,18,55,28.10
2015,07,01,18,56,28.10
2015,07,01,18,57,28.20
2015,07,01,18,58,28.20
2015,07,01,18,59,28.20
2015,07,01,19,00,28.20
2015,07,01,19,01,28.20
2015,07,01,19,02,28.20
2015,07,01,19,03,28.20
2015,07,01,19,04,28.20
2015,07,01,19,05,28.30
2015,07,01,19,06,28.30
2015,07,01,19,07,28.40
2015,07,01,19,08,28.40
2015,07,01,19,09,28.60
2015,07,01,19,10,28.40
2015,07,01,19,11,28.40
2015,07,01,19,12,28.40
2015,07,01,19,13,28.30
2015,07,01,19,14,28.30
2015,07,01,19,15,28.30
2015,07,01,19,16,28.20
2015,07,01,19,17,28.20
2015,07,01,19,18,28.20
2015,07,01,19,19,28.20
2015,07,01,19,20,28.10
2015,07,01,19,21,28.10
2015,07,01,19,22,28.10
2015,07,01,19,23,28.10
2015,07,01,19,24,28.00
2015,07,01,19,25,28.00
2015,07,01,19,26,28.00
2015,07,01,19,27,27.90
2015,07,01,19,28,27.90
2015,07,01,19,29,27.90
2015,07,01,19,30,27.80
2015,07,01,19,31,27.80
2015,07,01,19,32,27.80
2015,07,01,19,33,27.80
2015,07,01,19,34,27.80
2015,07,01,19,35,27.70
2015,07,01,19,36,27.70